FW8942 Weather Reports


time (UTC)temp
C
wind
direction
speed
KPH
gust
KPH
rain 1hr
cm
rain 24hr
cm
rain mn
cm
humidity
%
barometer
mb
20260507104533 11 34 0.0 0.0 0.00 0.00 0.00 94 1015.4
20260507103032 11 37 0.0 0.0 0.00 0.00 0.00 94 1015.4
20260507101530 11 34 0.0 0.0 0.00 0.00 0.00 93 1015.5
20260507100041 11 32 0.0 0.0 0.00 0.00 0.00 94 1015.5
20260507094524 12 33 0.0 0.0 0.00 0.00 0.00 93 1015.7
20260507093027 12 34 0.0 0.0 0.00 0.00 0.00 93 1015.8
20260507091522 12 30 0.0 4.8 0.00 0.00 0.00 93 1015.8
20260507090019 12 32 0.0 1.6 0.00 0.00 0.00 93 1015.9
20260507084538 12 34 0.0 1.6 0.00 0.00 0.00 93 1016.1
20260507083022 12 37 0.0 3.2 0.00 0.00 0.00 93 1016.2
20260507081514 12 340 0.0 4.8 0.00 0.00 0.00 93 1016.3
20260507080015 13 33 0.0 0.0 0.00 0.00 0.00 93 1016.4
20260507074513 12 20 0.0 1.6 0.00 0.00 0.00 93 1016.3
20260507073009 13 4 0.0 3.2 0.00 0.00 0.00 92 1016.5
20260507071515 13 30 0.0 3.2 0.00 0.00 0.00 92 1016.4
20260507070015 13 344 0.0 3.2 0.00 0.00 0.00 92 1016.6
20260507064507 13 29 0.0 0.0 0.00 0.00 0.00 92 1016.6
20260507063004 13 16 0.0 0.0 0.00 0.00 0.00 92 1016.3
20260507061504 13 337 0.0 1.6 0.00 0.00 0.00 91 1016.5
20260507060003 13 49 0.0 1.6 0.00 0.00 0.00 91 1016.6
20260507054503 13 323 0.0 1.6 0.00 0.00 0.00 90 1016.6
20260507053003 13 344 0.0 1.6 0.00 0.00 0.00 90 1016.6
20260507051502 14 44 0.0 1.6 0.00 0.00 0.00 89 1016.6
20260507050006 14 253 0.0 0.0 0.00 0.00 0.00 88 1016.4
20260507044501 15 253 0.0 0.0 0.00 0.00 0.00 88 1016.4
20260507043100 15 253 0.0 0.0 0.00 0.00 0.00 87 1016.3
20260507041601 15 253 0.0 1.6 0.00 0.00 0.00 87 1016.4
20260507040109 16 253 0.0 1.6 0.00 0.00 0.00 86 1016.2
20260507034605 16 253 0.0 1.6 0.00 0.00 0.00 85 1016.1
20260507033103 16 246 0.0 1.6 0.00 0.00 0.00 84 1015.9
20260507031558 16 269 0.0 1.6 0.00 0.00 0.00 83 1015.9
20260507030058 17 256 0.0 0.0 0.00 0.00 0.00 82 1015.7
20260507024557 17 256 0.0 3.2 0.00 0.00 0.00 82 1015.5
20260507023056 17 253 0.0 3.2 0.00 0.00 0.00 80 1015.4
20260507021605 18 253 1.6 8.0 0.00 0.00 0.00 77 1015.3
20260507020057 19 267 1.6 4.8 0.00 0.00 0.00 77 1015.3
20260507014558 19 267 0.0 4.8 0.00 0.00 0.00 75 1015.1
20260507013054 20 281 1.6 11.3 0.00 0.00 0.00 72 1015.0
20260507011558 20 270 3.2 11.3 0.00 0.00 0.00 68 1015.0
20260507010055 20 255 4.8 9.7 0.00 0.00 0.00 63 1014.8
20260507004553 20 277 6.4 17.7 0.00 0.00 0.00 61 1014.9
20260507003050 21 277 4.8 16.1 0.00 0.00 0.00 61 1014.8
20260507001549 21 277 6.4 12.9 0.00 0.00 0.00 61 1014.7
20260507000049 22 269 4.8 11.3 0.00 0.00 0.00 61 1014.6
20260506234604 21 283 3.2 9.7 0.00 0.00 0.00 64 1014.5
20260506233047 21 278 9.7 16.1 0.00 0.00 0.00 63 1014.5
20260506231546 21 236 6.4 14.5 0.00 0.00 0.00 67 1014.6
20260506230043 21 264 6.4 19.3 0.00 0.00 0.00 68 1014.7
20260506224546 21 285 8.0 20.9 0.00 0.00 0.00 67 1014.8
20260506223047 21 309 8.0 19.3 0.00 0.00 0.00 66 1014.9
20260506221539 20 271 6.4 17.7 0.00 0.00 0.00 67 1015.0
20260506220038 20 263 8.0 17.7 0.00 0.00 0.00 68 1015.2
20260506214539 21 269 12.9 20.9 0.00 0.00 0.00 66 1015.3
20260506213034 20 271 11.3 20.9 0.00 0.00 0.00 67 1015.6
20260506211535 21 284 11.3 19.3 0.00 0.00 0.00 67 1015.7
20260506210036 21 302 3.2 12.9 0.00 0.00 0.00 65 1015.8
20260506204546 22 278 3.2 9.7 0.00 0.00 0.00 65 1015.8
20260506203031 21 233 6.4 14.5 0.00 0.00 0.00 64 1016.0
20260506201533 20 277 6.4 17.7 0.00 0.00 0.00 68 1016.2
20260506200026 21 233 4.8 14.5 0.00 0.00 0.00 67 1016.3
20260506194525 21 295 6.4 14.5 0.00 0.00 0.00 66 1016.4
20260506193023 21 241 4.8 16.1 0.00 0.00 0.00 66 1016.5
20260506191526 21 267 3.2 11.3 0.00 0.00 0.00 65 1016.7
20260506190022 21 285 3.2 14.5 0.00 0.00 0.00 65 1016.8
20260506184521 22 257 3.2 6.4 0.00 0.00 0.00 63 1016.9
20260506183021 22 149 1.6 6.4 0.00 0.00 0.00 63 1017.0
20260506181525 21 281 0.0 6.4 0.00 0.00 0.00 65 1017.1
20260506180017 21 264 4.8 16.1 0.00 0.00 0.00 63 1017.3
20260506174515 21 194 8.0 11.3 0.00 0.00 0.00 63 1017.4
20260506173015 21 267 1.6 9.7 0.00 0.00 0.00 60 1017.4
20260506171521 21 120 0.0 1.6 0.00 0.00 0.00 64 1017.6
20260506170008 20 211 0.0 8.0 0.00 0.00 0.00 67 1017.6
20260506164505 19 297 0.0 0.0 0.00 0.00 0.00 69 1017.6
20260506163003 19 183 0.0 0.0 0.00 0.00 0.00 68 1017.7
20260506161503 18 106 0.0 0.0 0.00 0.00 0.00 72 1017.8
20260506160100 19 176 0.0 0.0 0.00 0.00 0.00 71 1017.7
20260506154557 18 217 0.0 0.0 0.00 0.00 0.00 73 1017.8
20260506153055 18 98 0.0 0.0 0.00 0.00 0.00 73 1017.8
20260506151605 18 60 0.0 0.0 0.00 0.00 0.00 79 1017.8
20260506150048 17 60 0.0 0.0 0.00 0.00 0.00 85 1017.9
20260506144544 16 60 0.0 0.0 0.00 0.00 0.00 90 1017.9
20260506143048 15 60 0.0 0.0 0.00 0.00 0.00 90 1017.8
20260506141540 14 60 0.0 0.0 0.00 0.00 0.00 93 1017.8
20260506140038 12 60 0.0 0.0 0.00 0.00 0.00 94 1017.6
20260506134532 10 60 0.0 0.0 0.00 0.00 0.00 94 1017.5
20260506133036 9 60 0.0 0.0 0.00 0.00 0.00 94 1017.4
20260506131531 8 60 0.0 0.0 0.00 0.00 0.00 95 1017.3
20260506130030 8 60 0.0 0.0 0.00 0.00 0.00 95 1017.2
20260506124528 8 19 0.0 0.0 0.00 0.00 0.00 95 1017.0
20260506123027 8 6 0.0 0.0 0.00 0.00 0.00 95 1016.9
20260506121527 8 1 0.0 0.0 0.00 0.00 0.00 94 1016.9
20260506120026 8 51 0.0 0.0 0.00 0.03 0.00 94 1016.9
20260506114535 8 51 0.0 0.0 0.00 0.03 0.00 94 1016.9
20260506113023 8 51 0.0 0.0 0.00 0.03 0.00 94 1016.8
20260506111521 8 51 0.0 0.0 0.00 0.03 0.00 93 1016.7
20260506110021 9 14 0.0 0.0 0.00 0.18 0.00 94 1016.7